Location: Ripley
(48.3812°N, 115.4473°W)
Time: 06:10:13
(UTC+00:00)

N. Korean satellite - Visible Passes

Search period start: 27 January 2022 00:00
Search period end: 06 February 2022 00:00
Orbit: 447 x 490 km, 97.3° (Epoch: 26 January)

Date Brightness Start Highest point End Pass type
(mag) Time Alt. Az. Time Alt. Az. Time Alt. Az.
27 Jan 6.4 13:07:32 10° NNE 13:11:12 85° WNW 13:13:04 27° SSW visible
28 Jan 10.1 01:20:20 10° WSW 01:21:32 11° W 01:22:43 10° WNW visible
28 Jan 7.8 12:38:26 10° NNE 12:41:55 42° E 12:44:00 21° SSE visible
28 Jan 8.1 14:12:19 10° NNW 14:14:46 17° WNW 14:17:11 10° WSW visible
29 Jan 9.2 12:09:45 10° NE 12:12:30 20° E 12:14:58 11° SE visible
29 Jan 7.2 13:42:25 10° N 13:45:44 33° WNW 13:49:01 10° SW visible
30 Jan 6.4 13:12:55 10° N 13:16:34 74° WNW 13:20:03 11° SSW visible
31 Jan 7.5 12:43:43 10° NNE 12:47:16 48° E 12:50:46 10° S visible
31 Jan 8.2 14:17:52 10° NNW 14:20:02 15° WNW 14:22:12 10° W visible
01 Feb 9.0 12:14:54 10° NE 12:17:50 23° E 12:20:44 10° SSE visible
01 Feb 7.4 13:47:47 10° N 13:50:59 29° WNW 13:54:09 10° SW visible
02 Feb 10.0 11:47:11 10° ENE 11:48:15 11° E 11:49:18 10° ESE visible
02 Feb 6.5 13:18:11 10° N 13:21:48 63° WNW 13:25:21 10° SSW visible
03 Feb 7.2 12:48:53 10° NNE 12:52:28 56° E 12:56:01 10° S visible
03 Feb 8.4 14:23:18 10° NNW 14:25:10 14° WNW 14:27:01 10° W visible
04 Feb 8.8 12:19:56 10° NE 12:23:00 25° E 12:26:03 10° SSE visible
04 Feb 7.6 13:53:02 10° N 13:56:05 26° WNW 13:59:07 10° SW visible
05 Feb 9.8 11:51:47 10° ENE 11:53:24 12° E 11:55:00 10° ESE visible
05 Feb 6.6 13:23:19 10° N 13:26:53 54° WNW 13:30:23 10° SSW visible
